Clinton-Sherman, OK

4:34 PM CDT on August 20, 2017 (GMT -0500)
Clinton-Sherman

Weather History for KCSM - June, 2013

Change the Weather History Date:

Wednesday, June 19, 2013

  Actual Average Record
Temperature  
Mean Temperature 76 °F -  
Max Temperature 86 °F 86 °F 108 °F (2011)
Min Temperature 68 °F 65 °F 62 °F (2017)
Cooling Degree Days 11    
Growing Degree Days 26 (Base 50)    
Moisture  
Dew Point 64 °F    
Average Humidity 72    
Maximum Humidity 96    
Minimum Humidity 44    
Precipitation  
Precipitation 0.04 in - - ()
Sea Level Pressure  
Sea Level Pressure 29.93 in    
Wind  
Wind Speed 10 mph (SSE)    
Max Wind Speed 44 mph    
Max Gust Speed 52 mph    
Visibility 10 miles    
Events Rain    
Averages and records for this station are not official NWS values.
T = Trace of Precipitation, MM = Missing Value Source: NWS Daily Summary

Daily Weather History Graph

Daily Weather History Graph

Search for Another Location

Airport or City:

Trip Planner

Search our weather history database for the weather conditions in past years. The results will help you decide how hot, cold, wet, or windy it might be!

Date:

Astronomy

Jun. 19, 2013 Rise Set
Actual Time 6:21 AM CDT 8:54 PM CDT
Civil Twilight 5:52 AM CDT 9:24 PM CDT
Nautical Twilight 5:14 AM CDT 10:01 PM CDT
Astronomical Twilight 4:33 AM CDT 10:42 PM CDT
Moon 4:54 PM CDT (6/19) 3:00 AM CDT (6/19)
Length of Visible Light 15h 32m
Length of Day
14h 32m
Waxing Gibbous, 80% of the Moon is Illuminated
Jun 19
Waxing Gibbous
Jun 23
Full
Jun 29
Last Quarter
Jul 8
New
Jul 15
First Quarter

Hourly Weather History & Observations

Time (CDT) Temp. Heat Index Dew Point Humidity Pressure Visibility Wind Dir Wind Speed Gust Speed Precip Events Conditions
12:53 AM 72.0 °F - 64.0 °F 76% 29.96 in 10.0 mi SE 9.2 mph - N/A   Clear
1:53 AM 72.0 °F - 64.0 °F 76% 29.95 in 10.0 mi SE 9.2 mph - N/A   Clear
2:53 AM 71.1 °F - 64.0 °F 78% 29.94 in 10.0 mi SE 10.4 mph - N/A   Clear
3:53 AM 70.0 °F - 64.9 °F 84% 29.95 in 10.0 mi SSE 6.9 mph - N/A   Clear
4:53 AM 69.1 °F - 64.9 °F 87% 29.96 in 10.0 mi SSE 5.8 mph - 0.00 in   Clear
5:53 AM 69.1 °F - 64.9 °F 87% 29.92 in 10.0 mi SE 13.8 mph - N/A   Clear
6:53 AM 68.0 °F - 66.0 °F 93% 29.99 in 10.0 mi NW 3.5 mph - N/A   Clear
7:25 AM 69.8 °F - 66.2 °F 88% 30.08 in 10.0 mi North 5.8 mph - N/A   Mostly Cloudy
7:53 AM 70.0 °F - 66.9 °F 90% 30.04 in 10.0 mi NW 6.9 mph - N/A   Mostly Cloudy
8:01 AM 69.8 °F - 66.2 °F 88% 30.11 in 10.0 mi NW 5.8 mph - N/A   Mostly Cloudy
8:53 AM 70.0 °F - 66.9 °F 90% 30.04 in 8.0 mi NW 6.9 mph - 0.02 in Rain Light Rain
9:53 AM 69.1 °F - 68.0 °F 96% 29.92 in 9.0 mi South 18.4 mph - 0.02 in   Partly Cloudy
10:53 AM 70.0 °F - 68.0 °F 93% 29.84 in 8.0 mi South 20.7 mph - 0.00 in   Partly Cloudy
11:53 AM 71.1 °F - 66.0 °F 84% 29.81 in 10.0 mi SSW 43.7 mph 51.8 mph N/A   Partly Cloudy
12:53 PM 75.0 °F - 60.1 °F 60% 29.92 in 10.0 mi Calm Calm - N/A   Clear
1:53 PM 77.0 °F - 61.0 °F 58% 29.92 in 10.0 mi Variable 3.5 mph - N/A   Clear
2:53 PM 80.1 °F 80.6 °F 57.9 °F 47% 29.90 in 10.0 mi SSW 9.2 mph - N/A   Clear
3:53 PM 82.0 °F 82.0 °F 57.9 °F 44% 29.88 in 10.0 mi Variable 4.6 mph - N/A   Clear
4:53 PM 82.9 °F 82.8 °F 59.0 °F 44% 29.87 in 10.0 mi SE 6.9 mph - N/A   Clear
5:53 PM 84.9 °F 85.0 °F 61.0 °F 44% 29.86 in 10.0 mi SE 6.9 mph - N/A   Clear
6:53 PM 84.0 °F 84.5 °F 62.1 °F 47% 29.85 in 10.0 mi SE 16.1 mph - N/A   Clear
7:53 PM 81.0 °F 81.1 °F 57.9 °F 45% 29.87 in 10.0 mi SSE 13.8 mph - N/A   Partly Cloudy
8:53 PM 78.1 °F - 60.1 °F 54% 29.88 in 10.0 mi SSE 10.4 mph - N/A   Clear
9:53 PM 75.9 °F - 63.0 °F 64% 29.87 in 10.0 mi SE 12.7 mph - N/A   Clear
10:53 PM 75.9 °F - 64.9 °F 69% 29.91 in 10.0 mi SE 15.0 mph - N/A   Clear
11:53 PM 75.0 °F - 69.1 °F 82% 29.87 in 10.0 mi SE 20.7 mph 26.5 mph N/A   Clear